• Join FlightAware (Why Join?)
  • Login
  • US Flag 
04:09AM EST


 

Airport Tracker/Info


-or-


 

Live Flight TrackerFlight Track Log ✈ EJA929 ✈ 02-Sep-2013 ✈ KSBA - KBFI

Flight Track Log - Related Links

Times and Time Zones

All times are in EDT time to prevent confusion due to time zone crossing. See the EJA929 flight status page for this flight to view local times or setup timezone preferences in your user account.

Time Position Orientation Groundspeed Altitude Reporting Facility
EDT Latitude Longitude Course Direction KTS MPH feet Rate Location/Type
06:57PM 34.4267 -119.8639 266° West 161 185 700  Level Los Angeles Center
06:59PM 34.4206 -119.9625 266° West 257 296 3,400 2,580 Climbing Los Angeles Center
07:00PM 34.4161 -120.0603 267° West 279 321 6,500 2,280 Climbing Los Angeles Center
07:01PM 34.4475 -120.1703 289° West 286 329 8,800 1,860 Climbing Los Angeles Center
07:02PM 34.5361 -120.1656 North 305 351 11,000 1,740 Climbing Los Angeles Center
07:03PM 34.6400 -120.1567 North 358 412 12,400 1,500 Climbing Los Angeles Center
07:04PM 34.7444 -120.1758 351° North 379 436 14,200 1,560 Climbing Los Angeles Center
07:05PM 34.8464 -120.2033 348° North 383 441 15,700 1,320 Climbing Los Angeles Center
07:06PM 34.9564 -120.2322 348° North 399 459 17,000 1,620 Climbing Los Angeles Center
07:07PM 35.0883 -120.2675 348° North 407 468 19,100 1,620 Climbing Los Angeles Center
07:08PM 35.2006 -120.2967 348° North 412 474 20,400 1,260 Climbing Los Angeles Center
07:09PM 35.3172 -120.3272 348° North 424 488 21,800 1,320 Climbing Los Angeles Center
07:10PM 35.4347 -120.3594 347° North 432 497 23,200 1,680 Climbing Los Angeles Center
07:11PM 35.5539 -120.3922 347° North 438 504 25,300 1,740 Climbing Los Angeles Center
07:12PM 35.6631 -120.4214 348° North 440 506 26,400 1,440 Climbing Oakland Center
07:13PM 35.7794 -120.4783 338° Northwest 457 526 27,900 1,440 Climbing Oakland Center
07:14PM 35.8928 -120.5481 334° Northwest 455 524 29,400 1,440 Climbing Oakland Center
07:15PM 36.0086 -120.6206 333° Northwest 463 533 30,900 1,440 Climbing Oakland Center
07:16PM 36.1272 -120.6919 334° Northwest 475 547 32,400 1,440 Climbing Oakland Center
07:17PM 36.2619 -120.7242 349° North 489 563 33,900 1,440 Climbing Oakland Center
07:18PM 36.4278 -120.7519 352° North 501 577 35,400 1,620 Climbing Oakland Center
07:19PM 36.5708 -120.7761 352° North 516 594 37,300 1,920 Climbing Oakland Center
07:20PM 36.7089 -120.7978 353° North 501 577 39,400 1,320 Climbing Oakland Center
07:21PM 36.8469 -120.8247 351° North 497 572 40,100 300 Climbing Oakland Center
07:22PM 36.9919 -120.8492 352° North 522 601 40,100 -60 Level Oakland Center
07:23PM 37.1428 -120.8756 352° North 542 624 40,000  Descending Oakland Center
07:24PM 37.2939 -120.9017 352° North 548 631 40,100  Climbing Oakland Center
07:25PM 37.4464 -120.9294 352° North 552 635 40,100  Level Oakland Center
07:27PM 37.5986 -120.9567 352° North 552 635 40,100  Level Oakland Center
07:28PM 37.7839 -120.9869 353° North 558 642 40,100 -60 Level Oakland Center
07:29PM 37.9364 -121.0142 352° North 556 640 40,000  Descending Oakland Center
07:30PM 38.0889 -121.0411 352° North 554 638 40,100  Climbing Oakland Center
07:31PM 38.2417 -121.0692 352° North 556 640 40,100 -60 Level Oakland Center
07:32PM 38.3939 -121.0961 352° North 555 639 40,000 -60 Descending Oakland Center
07:33PM 38.5369 -121.1617 340° North 553 636 40,000  Level Oakland Center
07:34PM 38.6872 -121.2692 331° Northwest 549 632 40,000  Level Oakland Center
07:35PM 38.8156 -121.3694 329° Northwest 548 631 40,100  Climbing Oakland Center
07:36PM 38.9492 -121.4603 332° Northwest 546 628 40,100  Level Oakland Center
07:37PM 39.0969 -121.5164 344° North 555 639 40,100 -60 Level Oakland Center
07:38PM 39.2533 -121.5433 352° North 565 650 40,000  Descending Oakland Center
07:39PM 39.4417 -121.5700 354° North 567 652 40,100  Climbing Oakland Center
07:40PM 39.5858 -121.5894 354° North 568 654 40,100  Level Oakland Center
07:41PM 39.7425 -121.6136 353° North 570 656 40,100  Level Oakland Center
07:42PM 39.9000 -121.6375 353° North 573 659 40,100  Level Oakland Center
07:43PM 40.0883 -121.6653 354° North 574 661 40,100  Level Oakland Center
07:44PM 40.2461 -121.6883 354° North 575 662 40,100  Level Oakland Center
07:45PM 40.4028 -121.7117 354° North 574 661 40,100  Level Oakland Center
07:46PM 40.5575 -121.7342 354° North 566 651 40,100  Level Oakland Center
07:47PM 40.7158 -121.7594 353° North 572 658 40,100  Level Oakland Center
07:48PM 40.9058 -121.7889 353° North 573 659 40,100  Level Oakland Center
07:49PM 41.0658 -121.8131 354° North 578 665 40,100  Level Oakland Center
07:50PM 41.2033 -121.8389 352° North 585 673 40,100  Level Oakland Center
07:51PM 41.3964 -121.8686 353° North 584 672 40,100 -60 Level Oakland Center
07:52PM 41.5578 -121.8928 354° North 585 673 40,000  Descending Oakland Center
07:53PM 41.7203 -121.9172 354° North 587 676 40,100  Climbing Oakland Center
07:54PM 41.8817 -121.9422 353° North 586 674 40,000  Descending Oakland Center
07:55PM 42.0681 -121.9725 353° North 590 679 40,100  Climbing Oakland Center
07:56PM 42.2272 -121.9964 354° North 586 674 40,000  Descending Seattle Center
07:57PM 42.3878 -122.0222 353° North 581 669 40,100  Climbing Seattle Center
07:58PM 42.5506 -122.0492 353° North 586 674 40,100  Level Seattle Center
07:59PM 42.7142 -122.0756 353° North 592 681 40,100 -60 Level Seattle Center
08:00PM 42.8783 -122.1019 353° North 594 684 40,000  Descending Seattle Center
08:01PM 43.0414 -122.1283 353° North 592 681 40,100  Climbing Seattle Center
08:02PM 43.2050 -122.1542 353° North 592 681 40,000  Descending Seattle Center
08:03PM 43.4011 -122.1858 353° North 598 688 40,100  Climbing Seattle Center
08:04PM 43.5647 -122.2133 353° North 596 686 40,100 -60 Level Seattle Center
08:06PM 43.7281 -122.2419 353° North 595 685 40,000  Descending Seattle Center
08:07PM 43.8939 -122.2683 353° North 605 696 40,100  Climbing Seattle Center
08:08PM 44.0594 -122.2953 353° North 602 693 40,100  Level Seattle Center
08:09PM 44.2239 -122.3244 353° North 600 690 40,100  Level Seattle Center
08:10PM 44.3894 -122.3522 353° North 603 694 40,100  Level Seattle Center
08:11PM 44.5550 -122.3808 353° North 603 694 40,100  Level Seattle Center
08:12PM 44.7519 -122.4161 353° North 601 692 40,100 -60 Level Seattle Center
08:13PM 44.8894 -122.4406 353° North 584 672 40,000 -60 Descending Seattle Center
08:14PM 45.0508 -122.4678 353° North 585 673 40,000  Level Seattle Center
08:15PM 45.2136 -122.4961 353° North 593 682 40,000 -180 Level Seattle Center
08:16PM 45.3767 -122.5239 353° North 594 684 39,700 -1,680 Descending Seattle Center
08:17PM 45.5667 -122.5581 353° North 579 666 36,600 -2,940 Descending Seattle Center
08:18PM 45.7244 -122.5861 353° North 576 663 33,800 -2,220 Descending Seattle Center
08:19PM 45.8697 -122.6203 351° North 531 611 32,100 -1,380 Descending Seattle Center
08:20PM 46.0097 -122.6561 350° North 514 592 31,000 -600 Descending Seattle Center
08:21PM 46.1536 -122.6897 351° North 524 603 31,000  Level Seattle Center
08:22PM 46.3117 -122.7319 350° North 529 609 31,000 -480 Level Seattle Center
08:23PM 46.4561 -122.7686 350° North 530 610 30,100 -1,140 Descending Seattle Center
08:24PM 46.5944 -122.8064 349° North 514 592 28,800 -1,320 Descending Seattle Center
08:25PM 46.7706 -122.8525 350° North 491 565 27,200 -1,560 Descending Seattle Center
08:26PM 46.8294 -122.8664 351° North 475 547 26,200 -2,100 Descending Seattle Center
08:27PM 46.9811 -122.8672 360° North 451 519 23,400 -2,100 Descending Seattle Center
08:28PM 47.0769 -122.7706 34° Northeast 422 486 21,300 -2,700 Descending Seattle Center
08:29PM 47.1497 -122.6750 42° Northeast 399 459 18,800 -3,120 Descending Seattle Center
08:30PM 47.2514 -122.5442 41° Northeast 360 414 15,000 -2,820 Descending Seattle Center
08:31PM 47.3119 -122.4992 27° Northeast 329 379 12,800 -2,040 Descending Seattle Center
08:32PM 47.3933 -122.5231 349° North 317 365 11,600 -1,380 Descending Seattle Center
08:33PM 47.4750 -122.5472 349° North 276 318 10,200 -1,740 Descending Seattle Center
08:34PM 47.5647 -122.5769 347° North 258 297 7,800 -1,860 Descending Seattle Center
08:35PM 47.6261 -122.5925 350° North 248 285 6,300 -1,620 Descending Seattle Center
08:36PM 47.6825 -122.6044 352° North 219 252 4,900 -1,140 Descending Seattle Center
08:37PM 47.7394 -122.5831 14° North 220 253 4,000 -540 Descending Seattle Center
08:38PM 47.7408 -122.5000 89° East 206 237 3,800 -840 Descending Seattle Center
08:39PM 47.6886 -122.4378 141° Southeast 197 227 2,200 -840 Descending Seattle Center
08:40PM 47.6592 -122.4133 151° Southeast 164 189 2,200 -180 Level Seattle Center
08:41PM 47.6219 -122.3814 150° Southeast 149 171 1,900 -600 Descending Seattle Center
08:42PM 47.5878 -122.3508 149° Southeast 142 163 1,100 -780 Descending Seattle Center
08:43PM 47.5433 -122.3144 151° Southeast 138 159 200 -480 Descending Seattle Center
08:44PM 47.5106 -122.2886 152° Southeast 138 159 100 -120 Descending Seattle Center